EN

Hourly Weather Alupka

Today, 23 January, Saturday

Time Temperature Precipitation Wind Pressure Humidity
00:00 +5°C° 0 mm 3 mps 760 mmHg 88%
01:00 +5°C° 0 mm 3 mps 760 mmHg 85%
02:00 +6°C° 0 mm 2 mps 759 mmHg 81%
03:00 +6°C° 0 mm 2 mps 759 mmHg 82%
04:00 +5°C° 0 mm 3 mps 759 mmHg 82%
05:00 +5°C° 0 mm 3 mps 759 mmHg 83%
06:00 +7°C° 0 mm 3 mps 759 mmHg 82%
07:00 +7°C° 0 mm 3 mps 759 mmHg 82%
08:00 +7°C° 0 mm 3 mps 759 mmHg 82%
09:00 +8°C° 0 mm 3 mps 759 mmHg 81%
10:00 +9°C° 0 mm 3 mps 759 mmHg 80%
11:00 +9°C° 0 mm 3 mps 759 mmHg 80%
12:00 +10°C° 0 mm 3 mps 758 mmHg 79%
13:00 +10°C° 0 mm 3 mps 758 mmHg 79%
14:00 +10°C° 0 mm 3 mps 758 mmHg 78%
15:00 +9°C° 0 mm 2 mps 758 mmHg 78%
16:00 +9°C° 0 mm 2 mps 757 mmHg 78%
17:00 +8°C° 0 mm 2 mps 757 mmHg 78%
18:00 +8°C° 0 mm 2 mps 757 mmHg 79%
19:00 +8°C° 0 mm 2 mps 757 mmHg 79%
20:00 +8°C° 0 mm 2 mps 757 mmHg 80%
21:00 +7°C° 0 mm 3 mps 757 mmHg 81%
22:00 +7°C° 0 mm 3 mps 757 mmHg 82%
23:00 +7°C° 0 mm 3 mps 757 mmHg 82%

Tomorrow, 24 January, Sunday

Time Temperature Precipitation Wind Pressure Humidity
00:00 +6°C° 0 mm 4 mps 756 mmHg 81%
01:00 +6°C° 0 mm 4 mps 756 mmHg 79%
02:00 +6°C° 0 mm 4 mps 756 mmHg 77%
03:00 +6°C° 0 mm 4 mps 755 mmHg 74%
04:00 +6°C° 0 mm 4 mps 755 mmHg 72%
05:00 +6°C° 0 mm 4 mps 755 mmHg 69%
06:00 +6°C° 0 mm 4 mps 755 mmHg 70%
07:00 +6°C° 0 mm 4 mps 755 mmHg 71%
08:00 +6°C° 0 mm 5 mps 755 mmHg 72%
09:00 +7°C° 0 mm 4 mps 755 mmHg 70%
10:00 +8°C° 0 mm 4 mps 754 mmHg 68%
11:00 +11°C° 0 mm 4 mps 754 mmHg 66%
12:00 +11°C° 0 mm 3 mps 754 mmHg 67%
13:00 +11°C° 0 mm 3 mps 754 mmHg 69%
14:00 +12°C° 0 mm 2 mps 753 mmHg 70%
15:00 +10°C° 0 mm 3 mps 754 mmHg 74%
16:00 +10°C° 0 mm 3 mps 754 mmHg 78%
17:00 +9°C° 0 mm 3 mps 754 mmHg 81%
18:00 +9°C° 0.2 mm 3 mps 754 mmHg 82%
19:00 +9°C° 0.2 mm 3 mps 754 mmHg 83%
20:00 +9°C° 0.2 mm 3 mps 754 mmHg 84%
21:00 +9°C° 0.2 mm 3 mps 754 mmHg 81%
22:00 +9°C° 0.2 mm 3 mps 754 mmHg 79%
23:00 +8°C° 0.2 mm 4 mps 754 mmHg 76%

Day after tomorrow, 25 January, Monday

Time Temperature Precipitation Wind Pressure Humidity
00:00 +9°C° 0 mm 3 mps 754 mmHg 76%
01:00 +9°C° 0 mm 3 mps 754 mmHg 75%
02:00 +9°C° 0 mm 3 mps 754 mmHg 75%
03:00 +9°C° 0 mm 3 mps 753 mmHg 77%
04:00 +9°C° 0 mm 3 mps 753 mmHg 79%
05:00 +8°C° 0 mm 4 mps 753 mmHg 80%
06:00 +9°C° 0.1 mm 3 mps 753 mmHg 81%
07:00 +9°C° 0.1 mm 3 mps 753 mmHg 82%
08:00 +9°C° 0.1 mm 3 mps 753 mmHg 83%
09:00 +10°C° 0 mm 4 mps 752 mmHg 80%
10:00 +11°C° 0 mm 4 mps 752 mmHg 78%
11:00 +11°C° 0 mm 4 mps 752 mmHg 75%
12:00 +11°C° 0 mm 4 mps 751 mmHg 74%
13:00 +11°C° 0 mm 4 mps 750 mmHg 73%
14:00 +11°C° 0 mm 4 mps 750 mmHg 72%
15:00 +11°C° 0.6 mm 4 mps 749 mmHg 78%
16:00 +10°C° 0.6 mm 4 mps 749 mmHg 84%
17:00 +8°C° 0.6 mm 4 mps 749 mmHg 90%
18:00 +8°C° 1.2 mm 5 mps 749 mmHg 91%
19:00 +8°C° 1.2 mm 6 mps 748 mmHg 91%
20:00 +8°C° 1.2 mm 7 mps 748 mmHg 92%
21:00 +7°C° 0.3 mm 8 mps 749 mmHg 91%
22:00 +7°C° 0.3 mm 9 mps 749 mmHg 90%
23:00 +7°C° 0.3 mm 9 mps 749 mmHg 90%

26 January, Tuesday

Time Temperature Precipitation Wind Pressure Humidity
00:00 +7°C° 0.1 mm 9 mps 749 mmHg 90%
01:00 +7°C° 0.1 mm 8 mps 749 mmHg 91%
02:00 +8°C° 0.1 mm 7 mps 750 mmHg 92%
03:00 +8°C° 0.1 mm 7 mps 749 mmHg 92%
04:00 +8°C° 0.1 mm 7 mps 749 mmHg 93%
05:00 +7°C° 0.1 mm 8 mps 749 mmHg 93%
06:00 +6°C° 1.7 mm 8 mps 749 mmHg 94%
07:00 +6°C° 1.7 mm 8 mps 749 mmHg 95%
08:00 +5°C° 1.7 mm 9 mps 749 mmHg 96%
09:00 +5°C° 0.9 mm 9 mps 750 mmHg 92%
10:00 +5°C° 0.9 mm 9 mps 751 mmHg 87%
11:00 +5°C° 0.9 mm 8 mps 752 mmHg 83%
12:00 +4°C° 0 mm 8 mps 752 mmHg 81%
13:00 +4°C° 0 mm 8 mps 753 mmHg 80%
14:00 +4°C° 0 mm 8 mps 753 mmHg 79%
15:00 +4°C° 0 mm 7 mps 754 mmHg 80%
16:00 +3°C° 0 mm 6 mps 754 mmHg 82%
17:00 +3°C° 0 mm 5 mps 755 mmHg 83%
18:00 +2°C° 0 mm 5 mps 755 mmHg 85%
19:00 +3°C° 0 mm 4 mps 755 mmHg 87%
20:00 +3°C° 0 mm 3 mps 755 mmHg 88%
21:00 +3°C° 0 mm 3 mps 756 mmHg 86%
22:00 +3°C° 0 mm 3 mps 756 mmHg 85%
23:00 +4°C° 0 mm 2 mps 756 mmHg 83%

27 January, Wednesday

Time Temperature Precipitation Wind Pressure Humidity
00:00 +4°C° 0 mm 2 mps 756 mmHg 82%
01:00 +4°C° 0 mm 2 mps 755 mmHg 81%
02:00 +5°C° 0 mm 1 mps 755 mmHg 80%
03:00 +5°C° 0.1 mm 1 mps 755 mmHg 82%
04:00 +4°C° 0.1 mm 1 mps 755 mmHg 85%
05:00 +4°C° 0.1 mm 1 mps 755 mmHg 87%
06:00 +4°C° 0 mm 1 mps 755 mmHg 85%
07:00 +5°C° 0 mm 1 mps 755 mmHg 84%
08:00 +5°C° 0 mm 1 mps 755 mmHg 82%
09:00 +4°C° 0.2 mm 2 mps 755 mmHg 79%
10:00 +4°C° 0.2 mm 2 mps 754 mmHg 76%
11:00 +4°C° 0.2 mm 3 mps 754 mmHg 73%
12:00 +4°C° 0 mm 4 mps 753 mmHg 72%
13:00 +4°C° 0 mm 4 mps 753 mmHg 70%
14:00 +3°C° 0 mm 5 mps 752 mmHg 68%
15:00 +3°C° 0 mm 5 mps 752 mmHg 70%
16:00 +2°C° 0 mm 6 mps 752 mmHg 71%
17:00 +2°C° 0 mm 6 mps 751 mmHg 73%
18:00 +1°C° 0.1 mm 6 mps 751 mmHg 75%
19:00 +1°C° 0.1 mm 6 mps 751 mmHg 77%
20:00 -1°C° 0.1 mm 6 mps 750 mmHg 79%
21:00 -1°C° 0.3 mm 6 mps 750 mmHg 80%
22:00 -2°C° 0.3 mm 7 mps 750 mmHg 82%
23:00 -2°C° 0.3 mm 7 mps 749 mmHg 84%

28 January, Thursday

Time Temperature Precipitation Wind Pressure Humidity
00:00 -2°C° 0.5 mm 7 mps 749 mmHg 84%
01:00 -2°C° 0.5 mm 7 mps 749 mmHg 85%
02:00 -2°C° 0.5 mm 7 mps 749 mmHg 86%
03:00 -3°C° 0.4 mm 7 mps 749 mmHg 86%
04:00 -3°C° 0.4 mm 7 mps 749 mmHg 86%
05:00 -3°C° 0.4 mm 6 mps 749 mmHg 86%
06:00 -3°C° 0.2 mm 6 mps 749 mmHg 87%
07:00 -3°C° 0.2 mm 7 mps 749 mmHg 87%
08:00 -3°C° 0.2 mm 7 mps 750 mmHg 88%
09:00 -3°C° 0.1 mm 6 mps 750 mmHg 88%
10:00 -3°C° 0.1 mm 6 mps 750 mmHg 87%
11:00 -2°C° 0.1 mm 6 mps 750 mmHg 87%
12:00 -2°C° 0.1 mm 6 mps 750 mmHg 88%
13:00 -2°C° 0.1 mm 6 mps 750 mmHg 89%
14:00 -2°C° 0.1 mm 6 mps 750 mmHg 90%
15:00 -2°C° 0.1 mm 6 mps 750 mmHg 91%
16:00 -2°C° 0.1 mm 6 mps 751 mmHg 92%
17:00 -3°C° 0.1 mm 6 mps 751 mmHg 93%
18:00 -3°C° 0.1 mm 6 mps 751 mmHg 93%
19:00 -2°C° 0.1 mm 5 mps 752 mmHg 93%
20:00 -2°C° 0.1 mm 5 mps 752 mmHg 93%
Show more